GEFSSGP_con_prob3kmehi_348.txt.gz
EHI
3 1 0 0 0 0 0 0 0 0 0 0 0 0 0 0 0 0 0 0 0 0 0 0 1 0 0 1 2 1 1 1 1 0 0 0 0 0 1 0 0 0 0 0 0 0 0 0 0
1 0 0 0 0 0 0 0 0 0 0 0 0 0 0 0 0 0 0 0 0 0 0 0 1 1 0 1 1 1 0 0 0 0 0 0 0 0 1 0 0 0 0 0 0 0 0 0 0
0 0 0 0 0 0 0 0 0 0 0 0 0 0 0 0 0 0 0 0 0 0 0 0 1 2 1 1 1 0 0 0 0 0 0 0 0 0 0 0 0 0 0 0 0 0 0 0 0
0 0 1 0 0 0 0 0 0 0 0 0 0 0 0 0 0 0 0 0 0 0 0 1 3 3 3 2 1 0 0 0 0 0 0 0 0 0 0 0 0 0 0 0 0 0 0 0 0
1 1 1 0 0 0 0 0 0 0 0 0 0 0 0 0 0 0 0 0 0 0 0 1 5 6 4 2 1 0 0 0 1 1 0 0 0 0 0 0 0 0 0 0 0 0 0 0 0
2 1 0 0 0 0 0 0 0 0 0 0 0 0 0 0 0 0 0 0 0 0 0 2 6 8 6 2 0 0 1 1 2 1 0 0 0 0 0 0 0 0 0 0 0 0 0 0 0
1 1 0 0 0 0 0 0 0 0 0 0 0 0 0 0 0 0 0 0 0 0 0 1 5 6 5 2 1 1 2 2 2 1 0 0 0 0 0 0 0 0 1 1 0 0 1 1 1
2 1 0 0 0 0 0 0 0 0 1 1 0 0 0 0 0 0 0 0 0 0 0 1 2 3 2 1 1 1 1 2 1 0 0 0 0 0 0 1 1 2 4 4 1 1 2 2 2
2 1 0 0 0 0 0 0 0 0 1 2 1 0 0 0 0 0 0 0 0 0 0 0 1 1 0 0 0 0 0 0 0 0 0 0 0 0 0 1 2 3 4 4 1 1 2 2 2
3 1 0 0 0 0 0 0 0 0 1 2 3 2 0 0 0 0 0 0 0 0 0 0 0 0 0 0 0 0 0 0 0 0 0 0 0 0 0 0 1 1 2 1 0 0 1 1 1
4 3 1 0 0 0 0 0 0 0 0 2 4 4 1 0 0 0 0 0 0 0 0 0 0 0 0 0 0 0 0 0 0 0 0 0 0 0 0 0 0 0 0 0 0 0 0 0 0
4 3 1 0 0 0 0 0 0 0 0 1 4 4 1 0 0 0 0 0 0 0 0 0 0 0 0 0 0 0 0 0 0 0 0 0 0 0 0 0 0 0 0 0 0 0 0 0 0
2 1 1 0 0 0 0 0 1 1 1 2 4 3 1 0 0 0 0 0 0 0 0 0 0 0 0 0 0 0 0 0 0 0 0 0 0 0 0 1 1 0 0 0 0 0 0 0 0
1 0 0 0 0 0 0 0 1 2 1 3 3 2 1 0 0 0 0 1 1 1 0 0 0 0 0 0 0 0 0 0 0 0 0 0 0 0 1 2 1 0 0 0 0 0 0 0 0
0 0 0 0 0 0 0 0 1 2 2 2 2 1 0 0 0 0 1 2 4 3 1 0 0 0 0 0 0 0 0 0 0 0 0 0 0 0 1 2 1 0 0 0 0 0 0 0 0
0 0 0 0 0 0 0 0 1 2 3 2 1 0 0 0 0 0 1 3 5 4 2 0 0 0 0 0 0 0 0 0 0 0 0 0 0 0 1 1 0 0 0 0 0 0 0 0 0
0 0 0 0 0 0 0 1 1 2 3 2 1 0 0 0 0 0 0 1 3 4 2 1 0 0 0 0 0 0 0 0 0 0 0 0 0 0 0 0 0 0 0 0 0 0 0 0 0
0 0 0 0 0 0 0 0 1 2 3 3 1 1 1 1 0 0 1 1 3 3 2 1 0 0 0 0 0 0 0 0 0 0 0 0 0 0 1 1 0 0 0 0 0 0 0 0 0
0 0 0 0 0 0 0 0 0 1 3 3 3 3 2 1 0 1 2 3 4 4 3 1 0 0 0 0 0 0 0 0 0 0 0 0 0 0 1 2 1 1 0 0 0 0 0 0 0
0 0 0 0 0 0 0 1 0 1 3 3 3 3 3 1 1 2 3 3 4 5 5 3 1 0 0 0 0 1 1 0 0 0 0 0 0 0 1 2 3 2 1 0 0 0 0 0 0
1 1 1 0 0 0 0 0 0 0 2 3 3 3 2 1 1 2 3 2 3 4 5 4 2 0 0 1 1 2 2 1 0 0 0 0 0 0 1 2 3 2 1 0 0 0 0 0 1
1 2 1 0 0 0 0 0 0 0 1 2 3 3 2 1 2 2 2 1 1 2 3 4 2 1 1 2 3 3 3 2 1 0 0 0 0 0 0 1 2 1 0 0 0 0 1 1 2
1 1 1 0 0 0 0 0 0 0 1 2 3 2 1 2 3 3 3 2 2 2 2 3 3 2 3 3 3 3 3 3 2 1 1 0 0 0 0 1 1 0 0 0 0 1 2 2 2
0 0 0 0 0 0 0 0 0 0 1 2 3 2 2 3 4 4 4 4 4 3 3 5 5 4 4 4 4 3 3 3 3 3 2 1 1 1 1 1 1 0 0 0 1 2 2 2 1
0 0 0 0 0 0 0 0 0 0 1 2 3 2 2 3 3 3 4 5 5 3 4 6 7 6 5 5 4 3 3 3 3 3 3 3 2 2 2 1 1 0 0 1 2 2 1 1 0
0 0 0 0 0 0 0 0 0 0 1 2 3 3 2 2 2 2 3 4 4 3 4 6 7 6 5 6 5 4 3 3 3 3 3 3 3 3 1 0 0 0 1 2 2 1 0 0 0
0 0 0 0 0 0 0 0 0 1 2 4 4 4 3 2 1 1 2 4 4 3 4 6 7 6 6 6 6 4 3 3 4 4 3 3 3 2 1 0 0 0 1 2 1 0 0 0 0
0 0 0 0 0 0 0 0 0 1 3 4 5 5 5 3 1 0 2 4 5 5 4 5 6 6 6 6 6 6 5 5 6 5 4 3 3 3 1 0 1 1 1 1 0 0 0 0 0
0 0 0 0 0 0 0 0 0 1 2 4 5 6 6 4 1 0 2 5 7 7 5 4 5 7 7 6 7 8 9 9 8 7 5 4 3 3 2 1 2 2 1 0 0 0 0 0 0
0 0 0 0 0 0 0 0 0 1 2 4 6 6 6 5 2 1 3 7 9 8 5 4 6 8 9 7 7 10 12 12 10 8 5 4 3 3 1 1 2 2 1 0 0 0 0 0 0

GEFSSGP_con_prob3kmehi_354.txt.gz
EHI
4 2 3 7 7 2 0 0 0 0 0 0 0 0 0 0 0 0 0 0 0 0 0 0 0 0 1 1 1 1 1 1 1 1 0 0 0 1 2 1 0 0 0 1 1 0 0 0 0
2 2 5 7 5 1 0 0 0 0 0 0 0 0 0 0 0 0 0 0 0 0 0 0 0 1 2 2 2 2 2 2 2 2 1 0 0 1 1 1 0 0 0 1 1 0 0 0 0
1 4 7 5 2 0 0 0 0 0 0 0 0 0 0 0 0 0 0 0 0 0 0 0 1 2 2 1 1 2 3 3 3 3 1 0 0 0 0 0 0 0 0 1 1 0 0 0 0
3 6 6 3 1 0 0 0 0 0 0 0 0 0 0 0 0 0 0 0 0 0 0 1 3 4 2 0 0 1 3 3 4 4 2 1 0 0 0 0 0 0 0 0 0 0 0 0 0
6 6 4 2 0 0 0 0 0 0 0 0 0 0 0 0 0 0 0 0 0 0 0 1 3 4 1 0 0 1 2 3 4 4 3 1 0 0 0 0 1 1 1 0 0 0 0 0 0
8 6 3 1 0 0 0 0 0 0 0 0 0 0 0 0 0 0 0 0 0 0 0 1 2 2 1 0 1 1 2 3 4 5 4 2 1 1 1 1 2 2 2 1 1 1 1 0 0
7 4 1 0 0 0 0 0 0 0 0 0 0 0 1 1 1 0 0 0 0 0 0 0 1 1 0 1 2 2 3 3 4 4 5 5 4 3 3 2 2 2 2 2 2 2 2 1 0
5 3 1 0 0 0 0 0 0 0 0 0 0 0 1 2 1 0 0 0 0 0 0 0 0 0 0 1 2 3 3 3 3 4 5 6 5 4 3 2 1 1 1 1 1 1 1 1 0
4 3 1 0 0 0 0 0 0 0 0 0 0 0 2 3 1 0 0 0 0 0 0 0 0 0 0 0 1 1 2 2 2 3 4 5 4 3 3 2 1 1 0 0 0 0 0 0 0
3 1 0 0 0 0 0 0 0 0 0 1 0 1 2 3 1 0 0 0 0 0 0 0 0 0 0 0 0 0 1 1 1 1 2 3 3 3 3 3 3 2 1 1 1 1 1 0 0
2 1 0 0 0 0 0 0 0 0 0 0 0 1 3 2 1 0 0 0 0 0 0 0 0 0 0 0 0 0 0 0 0 0 1 2 3 3 3 4 4 4 3 3 3 3 2 0 0
2 1 0 0 0 0 0 0 0 0 0 0 0 1 2 1 0 0 1 1 1 1 1 0 0 0 0 0 0 0 0 0 0 0 0 1 3 4 5 5 6 6 5 4 5 4 2 0 0
1 0 0 0 0 0 0 0 0 0 0 0 0 1 1 1 0 1 2 3 3 3 2 2 1 1 1 0 0 0 0 1 1 0 1 2 3 5 6 6 7 6 5 5 5 4 2 1 1
0 0 0 0 0 0 0 0 0 0 1 0 0 0 1 1 1 2 3 4 4 4 3 4 5 4 2 1 0 0 0 1 1 1 1 2 3 5 5 6 5 4 3 4 4 3 2 2 2
0 0 0 0 0 0 0 0 0 0 0 0 0 0 0 1 2 2 2 4 5 4 3 5 6 6 5 4 2 1 0 1 1 0 1 2 3 4 5 4 2 2 2 2 2 2 2 2 2
0 0 0 0 0 0 0 0 0 0 0 0 0 0 0 1 2 2 2 3 5 5 5 5 6 7 8 9 7 2 0 0 0 0 0 1 2 3 4 2 1 2 2 2 1 1 1 2 2
0 0 0 0 0 0 0 0 0 0 0 0 0 0 0 2 3 3 3 3 4 5 7 8 8 8 11 14 10 4 1 0 0 0 0 0 1 1 2 2 1 2 2 2 1 1 2 2 2
0 0 0 0 0 0 0 0 0 0 0 0 0 0 0 1 2 3 3 3 3 5 8 10 10 11 12 14 11 5 2 1 1 1 1 1 1 0 1 2 3 2 3 2 2 2 2 3 3
0 0 0 0 0 0 0 0 0 1 0 0 0 0 1 2 2 3 3 2 4 7 10 12 11 11 12 12 11 7 4 3 2 3 4 4 3 2 3 4 4 4 4 4 3 1 1 1 1
0 0 0 0 0 0 0 0 0 0 0 0 0 0 2 3 4 3 3 4 6 10 13 13 12 12 12 11 11 10 7 5 4 5 7 7 6 5 5 6 5 5 4 4 3 1 1 0 0
0 0 0 0 0 0 0 0 0 0 0 0 0 0 1 3 4 5 5 7 9 10 12 13 14 14 14 13 12 11 11 9 7 8 9 8 7 6 6 6 6 6 5 4 4 3 2 1 0
0 0 0 0 0 0 0 1 1 1 0 0 1 1 2 3 5 7 8 9 9 8 9 13 16 18 18 16 14 14 14 13 11 11 10 8 6 5 4 4 5 6 5 5 5 5 5 4 3
0 0 0 0 0 0 1 1 1 2 1 1 2 3 3 4 7 8 8 8 8 6 7 11 17 20 21 20 18 17 16 15 13 13 11 8 5 3 3 4 5 5 5 6 6 7 8 8 7
0 0 0 0 0 0 1 0 1 3 2 1 2 4 5 6 7 7 8 8 7 5 6 9 14 19 21 20 18 17 16 15 16 15 12 8 5 4 5 5 6 6 6 6 7 8 9 10 11
0 0 0 0 0 0 1 1 1 3 3 1 2 4 5 7 8 8 9 9 6 5 5 6 10 15 18 18 16 15 15 16 17 17 14 10 7 6 7 6 6 6 6 7 8 9 9 9 9
1 0 0 0 0 0 1 1 3 3 3 2 2 4 6 9 11 11 10 9 6 4 4 5 8 13 16 16 16 16 16 15 17 18 15 11 8 7 8 7 6 6 5 6 8 8 7 7 7
1 0 0 0 0 0 0 2 3 4 5 4 3 5 8 12 14 13 11 8 7 6 6 6 8 11 14 15 16 16 17 17 19 20 18 14 11 10 9 9 7 5 5 6 7 7 6 6 6
1 0 0 0 0 0 0 1 2 4 6 5 6 8 11 14 15 14 11 8 7 8 9 8 8 10 12 14 15 16 18 20 21 22 23 21 18 14 13 11 9 7 6 7 7 6 5 4 4
0 0 0 0 0 0 0 0 1 3 4 6 8 10 12 14 14 12 10 8 9 9 10 11 11 11 14 17 17 18 20 21 21 23 25 25 23 19 15 12 10 8 7 7 7 6 5 5 4
0 0 0 0 0 0 0 0 1 2 3 5 8 10 11 11 11 10 9 9 10 10 11 13 13 13 16 20 21 20 20 20 20 22 24 24 24 21 16 12 9 7 6 7 7 7 6 5 4

GEFSSGP_con_prob3kmehi_360.txt.gz
EHI
7 11 18 26 27 16 4 0 0 0 0 1 1 1 0 0 0 0 0 1 3 3 3 5 8 7 5 3 2 3 2 1 1 2 3 3 3 3 2 1 0 0 0 0 0 0 0 1 2
8 13 21 24 19 9 2 0 0 0 0 0 0 0 0 0 0 0 0 1 2 3 3 5 7 6 3 1 2 3 2 0 1 2 3 2 2 2 1 0 0 0 0 0 0 0 0 1 2
10 16 20 17 9 3 0 0 0 0 0 0 0 0 0 0 0 0 0 0 1 2 5 7 6 4 1 0 2 3 3 1 2 3 2 1 1 1 0 1 1 1 1 0 0 0 0 0 1
16 17 16 9 3 0 0 0 0 0 0 0 0 0 0 0 0 0 0 0 1 4 8 9 7 4 3 2 2 3 4 3 3 4 3 2 1 1 1 2 2 2 2 1 1 0 0 0 0
19 15 10 5 1 0 0 0 0 0 0 0 0 0 1 1 0 0 0 1 2 6 10 11 10 8 7 5 3 3 4 3 3 4 3 3 3 3 3 3 3 3 3 3 2 1 1 1 2
17 12 6 2 0 0 1 0 0 0 0 0 0 1 3 3 2 1 0 1 3 6 9 11 12 12 11 8 5 4 4 3 3 3 3 4 4 5 6 5 4 3 3 3 3 3 3 4 4
15 10 5 1 0 0 0 0 0 0 0 0 0 2 5 6 4 2 0 0 1 3 6 9 10 12 12 10 7 7 6 4 3 3 4 5 6 7 8 6 5 4 3 3 3 3 3 4 5
11 8 4 1 0 0 0 0 1 0 0 1 1 2 5 6 4 2 1 0 0 1 4 6 7 9 10 10 10 11 10 7 5 5 6 7 7 7 6 6 6 6 5 5 5 5 5 6 7
7 6 3 1 0 0 0 0 0 0 0 1 2 2 3 4 3 2 2 2 1 1 2 3 4 6 7 7 10 12 12 9 7 6 7 8 7 5 4 5 9 11 11 9 9 9 9 9 9
5 4 2 0 0 0 0 0 1 1 1 1 2 2 2 3 3 3 3 4 3 2 2 2 3 4 4 5 8 10 10 10 9 7 8 8 7 4 3 6 11 16 15 11 10 11 11 9 7
2 2 1 0 0 0 0 1 2 2 1 1 2 2 2 3 4 4 5 5 4 3 2 2 2 3 2 3 5 7 9 11 11 10 10 9 7 5 5 7 10 13 12 8 7 8 8 6 5
0 0 0 0 0 0 0 1 2 2 2 2 2 2 1 2 5 6 6 6 6 3 3 3 4 5 5 4 3 4 8 11 12 12 12 10 7 6 8 10 10 9 8 6 5 5 5 4 4
0 0 0 0 0 0 1 2 3 3 2 2 2 1 0 1 4 5 6 7 6 5 4 5 7 9 10 8 5 4 7 10 11 13 14 12 10 10 13 14 13 10 9 8 6 5 5 4 4
0 0 0 0 0 0 1 3 5 4 3 2 1 1 1 1 3 4 5 6 6 6 6 7 9 12 14 13 11 7 8 10 12 15 17 15 13 14 16 16 15 12 9 9 7 5 4 4 4
0 0 0 0 0 0 1 3 5 5 3 2 1 2 2 2 3 3 4 6 6 7 9 9 10 13 17 17 14 9 7 9 12 15 17 16 15 14 15 15 15 14 11 9 7 5 4 4 4
0 0 0 0 0 0 1 3 5 4 4 4 2 3 4 4 4 4 5 7 8 8 11 11 11 14 17 17 14 10 7 8 10 14 16 16 15 14 13 14 15 17 16 13 9 7 7 7 6
0 0 1 0 0 0 1 3 3 3 5 6 5 4 6 6 5 6 7 9 10 11 13 14 15 16 16 15 14 13 11 9 10 14 16 16 15 13 12 13 14 16 17 14 9 9 10 10 9
0 0 0 0 0 0 0 1 2 3 4 6 7 7 8 8 7 7 8 10 12 15 17 19 20 21 19 16 15 15 14 13 12 15 17 16 13 13 11 11 12 13 14 12 8 7 9 10 10
0 0 0 0 0 0 0 1 4 4 4 5 7 10 11 9 9 10 10 11 15 19 22 23 25 26 25 22 18 17 17 16 14 16 17 14 12 12 10 9 10 12 12 11 8 7 8 9 9
0 0 0 0 0 0 0 2 5 5 3 4 8 11 12 10 11 14 16 14 17 23 25 25 28 29 27 25 23 21 19 17 16 17 18 15 13 12 11 10 11 13 13 11 9 9 10 9 8
0 0 0 0 0 0 0 2 6 6 4 4 8 12 13 13 14 19 21 18 19 23 25 27 31 32 29 26 24 21 20 18 17 19 20 17 14 12 12 12 12 13 13 12 11 11 12 12 10
0 0 0 0 0 0 0 2 7 8 5 4 8 13 16 16 18 20 23 21 20 21 24 28 34 35 31 27 24 22 20 18 17 19 21 19 16 13 13 13 14 14 14 13 12 11 12 13 12
0 0 0 0 0 0 0 1 6 10 9 7 10 14 17 18 20 22 25 24 21 20 23 29 36 37 33 29 26 23 21 19 19 22 23 21 18 15 13 13 15 15 14 13 11 10 10 11 11
0 0 0 0 0 0 0 1 4 9 12 13 13 15 17 19 22 25 27 26 22 19 21 29 37 38 35 32 28 26 24 22 23 25 25 22 20 18 16 15 16 16 14 13 12 11 11 11 12
0 0 0 0 0 0 0 1 3 8 13 15 16 16 16 18 22 24 26 26 24 21 22 30 38 40 37 34 32 30 27 25 26 27 26 23 20 20 21 21 20 20 18 16 16 16 14 13 12
0 0 0 0 0 0 0 2 5 8 11 12 14 16 16 17 18 19 22 25 25 23 25 31 37 39 37 35 35 33 30 28 29 31 29 25 22 22 24 26 26 25 22 20 20 20 18 14 13
0 0 0 0 0 0 1 3 6 8 9 9 10 13 16 16 17 18 19 22 23 23 25 28 33 36 36 34 33 33 31 31 33 33 32 29 26 24 26 28 29 27 24 22 22 21 19 16 14
0 0 0 0 0 0 0 2 4 6 7 8 10 14 17 17 18 18 17 17 19 19 20 23 29 33 33 31 31 30 32 32 32 31 31 31 29 27 27 29 30 29 26 24 23 22 21 19 17
0 0 0 0 0 0 0 1 2 2 4 7 13 18 19 18 18 19 18 18 18 17 18 22 27 30 31 31 32 32 32 32 29 29 29 30 31 30 28 30 31 31 29 26 24 22 20 18 18
0 0 0 0 0 0 0 0 1 1 3 7 15 20 20 20 20 22 22 21 20 18 20 23 25 28 31 34 35 35 34 31 29 28 28 29 31 31 29 30 32 32 30 26 24 20 17 16 17

GEFSSGP_con_prob3kmehi_366.txt.gz
EHI
8 6 4 2 1 0 0 0 0 0 0 0 0 0 0 0 0 0 0 0 0 1 2 5 9 12 11 9 7 7 8 7 7 6 4 5 7 9 7 3 1 1 0 0 1 1 0 0 0
7 7 5 2 1 0 0 0 0 0 0 0 0 0 0 0 0 0 0 0 0 1 2 5 9 12 11 9 7 7 8 8 7 5 5 5 8 10 8 4 2 2 2 1 2 2 1 0 0
7 7 6 3 1 0 0 0 0 0 0 0 0 0 0 0 0 1 1 0 0 0 1 5 12 14 11 8 7 8 8 8 7 5 6 6 8 9 8 6 5 5 4 3 2 2 1 0 0
8 8 6 2 1 0 0 0 0 0 0 1 1 1 0 0 2 4 3 1 0 0 1 7 15 17 13 9 8 8 8 8 7 6 7 8 9 9 8 7 6 6 5 3 1 1 0 1 1
9 7 4 2 0 0 0 0 0 0 1 3 3 1 0 1 4 6 4 1 0 0 1 7 15 18 15 12 10 9 9 9 9 8 10 11 10 9 7 7 6 6 5 2 0 0 1 2 3
7 6 4 2 0 0 0 0 0 0 1 4 5 3 1 2 5 7 4 2 1 0 1 5 11 15 15 13 12 11 11 11 11 11 11 12 10 7 6 6 7 7 5 2 0 0 1 3 4
6 5 4 2 0 0 0 0 0 0 1 4 5 3 2 3 5 6 4 2 2 1 1 2 5 9 10 11 12 13 12 11 11 12 11 9 7 4 4 6 8 7 4 2 1 1 2 4 6
7 5 3 1 0 0 0 0 0 0 1 3 3 3 2 3 5 5 3 2 3 2 1 1 1 3 4 6 9 11 11 10 9 9 7 5 3 2 2 6 9 7 4 3 3 3 4 6 7
7 5 2 1 0 0 0 0 0 0 1 1 3 4 5 5 6 6 3 2 2 2 1 0 0 0 1 3 5 7 9 8 6 4 3 2 1 1 2 6 10 9 7 6 7 7 8 8 7
6 4 2 1 0 0 0 1 1 0 0 1 3 6 7 7 7 6 4 2 1 1 0 0 0 0 1 1 2 3 5 5 3 1 1 1 0 1 2 5 8 9 8 7 8 8 8 7 5
4 3 1 0 0 0 1 2 2 1 1 2 5 7 8 7 6 5 3 1 0 0 0 0 0 0 0 0 1 2 3 3 2 1 0 0 0 0 1 3 4 5 4 4 4 4 4 4 3
2 1 0 0 1 1 1 3 3 3 4 4 7 8 8 6 6 4 2 1 0 0 0 0 0 0 0 1 2 3 3 4 3 2 1 1 1 1 1 1 1 1 1 1 1 1 1 1 1
0 0 0 1 2 3 3 3 4 5 6 6 7 7 5 5 5 3 2 0 0 0 1 2 2 1 1 1 2 3 4 5 5 4 3 3 2 2 2 2 2 2 2 1 1 0 0 0 0
0 0 0 1 2 4 3 3 5 7 8 6 5 4 3 2 3 3 1 0 0 0 2 3 3 2 2 2 2 3 3 4 4 5 5 4 3 3 3 3 3 3 3 2 1 0 0 0 0
0 0 0 0 1 3 3 3 6 9 8 5 2 1 0 1 2 2 1 0 0 0 1 3 4 4 4 3 3 3 2 2 2 3 5 5 4 3 3 3 3 3 3 2 1 0 0 0 0
0 0 0 0 1 1 1 2 6 9 8 4 1 0 0 1 1 2 2 1 0 1 1 3 4 6 6 5 3 2 2 1 1 3 4 5 5 4 3 3 3 3 3 3 1 0 0 0 0
0 0 0 0 0 0 0 1 5 8 7 5 2 1 1 2 3 4 5 3 1 2 2 3 4 6 7 6 4 3 2 2 3 3 3 4 5 5 4 3 3 3 3 3 2 1 0 0 0
0 0 0 0 0 0 0 1 4 7 7 5 4 2 2 3 5 6 6 5 5 5 4 4 5 7 7 6 5 4 4 3 3 3 3 4 5 6 5 4 3 3 3 3 3 2 1 1 1
0 0 0 0 0 0 0 0 3 7 9 8 7 5 4 3 4 6 8 9 10 9 8 8 8 8 8 7 7 7 6 4 3 3 3 4 4 5 4 3 3 3 3 3 3 3 2 1 0
0 0 0 0 0 0 0 1 3 8 10 11 10 7 5 3 4 7 10 13 16 16 14 12 10 9 8 8 9 9 8 5 4 2 2 3 4 4 3 3 3 3 3 3 3 3 2 1 0
0 0 0 0 0 0 0 1 3 6 9 10 10 7 4 5 7 10 14 19 22 22 20 16 13 10 9 9 9 9 9 7 4 3 2 3 3 3 3 3 3 3 3 3 2 2 2 0 0
0 0 0 0 0 0 0 1 2 4 6 8 8 6 5 7 11 14 17 21 23 23 22 18 14 11 10 10 10 10 9 7 5 4 4 3 3 3 3 3 3 3 3 3 3 3 2 1 1
0 0 0 0 0 0 0 0 1 3 5 7 7 6 7 10 12 16 18 18 19 20 19 17 15 12 10 9 10 10 9 7 5 4 4 3 3 4 4 4 4 4 4 3 3 3 3 3 2
0 0 0 0 0 0 0 0 1 3 6 9 9 9 11 13 13 15 16 16 15 17 18 17 16 13 10 8 8 8 8 7 5 4 4 3 4 5 5 6 6 7 6 4 3 3 3 3 3
0 0 0 0 0 0 0 0 0 2 5 9 11 12 13 14 14 14 14 14 14 16 19 19 17 14 10 8 8 8 7 6 6 6 5 4 4 5 5 6 6 7 8 7 5 4 3 3 4
0 0 0 0 0 0 0 0 0 1 4 8 11 12 13 13 14 14 13 11 11 14 17 18 17 14 12 11 11 11 9 7 7 6 6 5 4 5 5 5 4 6 8 9 8 6 5 5 5
0 0 0 0 0 0 0 0 1 2 6 10 11 12 11 13 16 16 13 10 8 10 14 17 17 16 16 15 14 13 11 9 7 6 5 5 5 6 7 6 6 7 10 11 10 8 7 6 6
0 0 0 0 0 0 0 0 1 3 7 10 11 11 12 14 17 16 13 10 7 7 12 16 18 18 18 17 15 14 13 11 10 8 7 7 7 8 9 10 9 9 10 10 9 8 6 5 5
0 0 0 0 0 0 0 0 1 3 5 8 10 12 15 16 17 16 13 10 8 8 12 17 19 18 17 16 15 14 14 14 12 11 11 11 10 10 11 12 11 10 10 9 7 6 6 6 6
0 0 0 0 0 0 0 0 1 3 4 6 10 14 16 16 15 15 11 9 8 9 14 20 21 17 15 14 14 14 15 14 13 13 13 14 13 12 11 11 11 10 9 7 5 5 6 6 6

GEFSSGP_con_prob3kmehi_372.txt.gz
EHI
6 3 1 1 0 0 0 0 0 0 0 0 0 0 0 0 0 0 0 0 0 0 1 5 9 9 7 7 9 9 9 9 9 9 9 9 8 5 3 1 0 0 0 0 1 0 0 0 0
4 2 1 1 0 0 0 0 0 0 0 0 0 0 0 0 0 0 0 0 0 0 1 5 10 11 8 7 8 9 9 8 8 9 9 9 7 5 3 1 1 0 0 1 1 0 0 0 0
3 2 1 0 0 0 0 0 0 0 0 0 0 0 0 0 0 0 0 0 0 0 0 5 12 13 9 7 8 9 8 8 8 8 8 8 6 5 4 2 1 1 1 1 1 1 1 0 0
2 2 1 0 0 0 0 0 0 0 0 0 0 0 0 0 0 0 0 0 0 0 0 5 12 13 9 7 8 8 7 6 6 5 6 6 5 4 3 2 1 2 2 1 1 1 2 1 0
1 2 1 0 0 0 0 0 0 0 1 1 0 0 1 1 1 0 0 0 0 0 0 3 8 9 7 7 7 6 5 4 4 3 4 4 3 2 1 0 1 2 2 1 1 1 2 1 0
0 0 0 0 0 0 0 0 0 0 1 2 1 1 1 3 2 1 0 0 0 0 0 1 4 6 6 6 7 6 5 4 4 4 3 2 2 1 0 0 1 2 2 1 0 1 2 2 1
0 0 0 0 0 0 0 0 0 1 2 3 2 2 2 3 3 1 0 0 0 0 0 0 2 3 4 5 6 6 5 5 5 5 3 2 3 2 1 0 0 1 2 2 1 1 2 3 2
1 0 0 0 0 0 0 0 1 1 1 2 3 3 3 3 2 0 0 0 0 0 0 0 0 1 1 3 4 4 4 4 4 4 3 3 4 3 2 0 0 2 3 3 2 2 3 4 3
2 1 0 0 0 0 0 0 1 1 1 1 3 5 5 3 1 0 0 0 0 0 0 0 0 0 0 1 2 2 2 1 1 1 1 1 2 2 1 1 1 2 3 3 3 3 3 3 3
2 1 0 0 0 0 0 0 0 0 0 1 5 7 6 4 2 0 0 0 0 0 0 0 0 0 0 0 0 0 0 0 0 0 0 0 0 1 1 1 2 2 2 2 2 2 2 1 1
2 2 2 2 1 0 0 1 1 0 1 2 6 7 6 3 1 0 0 0 0 0 0 0 0 0 0 0 0 0 0 0 0 1 1 1 1 1 1 1 1 1 1 1 1 1 1 0 0
3 3 3 3 2 0 1 2 2 1 1 3 5 6 5 3 1 0 0 0 0 0 0 0 0 0 0 0 0 0 0 0 0 1 2 1 1 1 1 0 1 1 0 0 0 0 0 0 0
2 2 2 1 1 0 1 2 2 1 1 1 3 4 4 3 2 0 0 0 0 0 0 0 0 0 0 0 0 0 0 0 0 0 1 1 1 1 1 1 2 2 1 1 1 0 0 0 0
0 0 0 0 0 0 1 1 1 0 0 0 1 2 3 2 1 0 0 0 0 0 0 0 0 0 0 0 0 0 0 0 0 0 1 2 2 2 2 3 3 3 3 2 2 1 0 0 0
0 0 0 0 0 0 0 0 0 0 0 0 1 1 1 1 0 0 0 0 0 0 0 0 1 1 1 1 1 2 1 1 1 0 1 2 3 3 3 3 3 3 3 2 2 2 1 0 0
0 0 0 0 0 0 0 0 0 0 0 0 0 0 0 0 0 0 0 0 0 0 1 1 2 2 2 3 3 3 2 2 1 0 0 1 2 3 3 3 3 2 1 1 2 2 1 0 0
0 0 0 0 0 0 0 0 0 0 0 0 0 0 0 0 0 0 0 0 0 0 1 2 3 3 3 4 4 3 2 1 1 0 0 0 1 2 3 3 2 1 0 1 3 2 1 0 0
0 0 0 0 0 0 0 0 0 0 0 0 0 0 0 0 0 1 1 1 0 1 2 3 3 3 3 3 4 3 2 1 0 0 0 0 0 1 2 2 1 1 1 2 3 2 1 1 0
0 0 0 0 0 0 0 0 0 0 0 0 0 0 0 0 1 2 3 2 2 2 3 3 3 3 3 3 3 3 2 1 0 0 0 0 0 1 1 1 1 2 3 3 2 3 3 2 1
0 0 0 0 0 0 0 0 0 0 1 1 1 0 0 1 3 4 4 4 3 3 3 3 3 3 3 4 4 4 2 1 0 0 0 0 0 1 2 2 2 3 3 3 3 3 3 3 2
0 0 0 0 0 0 0 0 0 0 1 2 2 1 1 2 4 4 4 5 5 4 4 3 3 2 3 4 5 4 2 0 0 0 0 0 1 2 3 3 3 3 3 3 3 3 2 2 2
0 0 0 0 0 0 0 0 0 0 1 1 2 2 2 3 4 4 5 7 6 4 3 3 2 1 2 3 4 4 2 1 0 0 1 1 2 3 3 3 2 2 2 2 2 1 1 1 1
0 0 0 0 0 0 0 0 0 0 0 0 1 3 3 4 4 5 6 6 5 2 1 1 0 0 1 3 4 4 3 2 1 1 2 2 2 2 2 1 1 1 1 1 1 0 0 0 1
0 0 0 0 0 0 0 0 0 0 0 0 1 3 4 4 3 3 4 4 2 1 1 2 2 2 2 4 5 5 4 3 1 1 2 1 1 1 1 0 0 0 0 0 0 0 0 1 2
0 0 0 0 0 0 0 0 0 0 0 1 2 3 3 2 2 2 2 2 1 2 4 6 6 5 5 6 7 6 5 3 2 2 1 0 0 0 0 1 1 1 0 0 0 0 0 1 2
0 0 0 0 0 0 0 0 0 0 0 1 3 4 3 2 1 1 2 2 2 3 6 8 8 7 6 7 6 5 3 3 2 1 0 0 0 1 1 2 2 2 1 0 0 0 0 1 2
0 0 0 0 0 0 0 0 0 0 1 2 4 5 4 2 1 1 2 3 3 3 5 7 7 5 4 4 3 2 1 1 1 0 0 0 1 2 3 3 3 3 3 2 2 2 2 3 3
0 0 0 0 0 0 0 0 0 1 2 3 4 4 4 3 2 2 3 4 4 4 3 3 4 3 3 3 2 1 0 1 1 0 1 1 2 3 3 3 2 3 3 3 5 5 6 6 5
0 0 0 0 0 0 0 0 0 1 2 3 3 3 3 3 3 3 3 4 5 4 3 3 4 4 4 4 3 2 2 3 3 2 2 2 3 2 2 1 1 1 1 2 5 7 8 7 6
0 0 0 0 0 0 0 0 0 1 2 3 3 3 3 3 3 3 2 4 4 4 4 5 6 6 5 5 4 3 3 4 5 5 4 2 2 1 0 0 0 0 0 1 4 6 7 7 7